Tracking 23114 objects as of 14-May-2021
HD Live streaming from Space Station
objects crossing your sky now

ARIANE 5 R/B

Track ARIANE 5 R/B now!


NORAD ID: 39218
Int'l Code: 2013-038D
Perigee: 222.4 km
Apogee: 31,256.0 km
Inclination: 2.7 °
Period: 545.3 minutes
Semi major axis: 22110 km
RCS: Unknown
Launch date: July 25, 2013
Source: France (FR)
Launch site: FRENCH GUIANA (FRGUI)

Note: This is a ROCKET BODY
aabbcc
Your satellite tracking list
Your tracking list is empty




NASA's NSSDC Master Catalog

Two Line Element Set (TLE):
1 39218U 13038D   21133.51151283  .00003977  00000-0  41937-3 0  9997
2 39218   2.7312 189.6884 7017924 289.1708  11.3018  2.64066654 70807
Source of the keplerian elements: AFSPC